Location: Grand Mazuras
(45.9128°N, 1.7636°E)
Time: 06:44:21
(UTC+00:00)

Cosmos 2098 Rocket - Pass Details

Date: 18 April 2021
Orbit: 367 x 1178 km, 82.9° (Epoch: 15 May)

Event Time Altitude Azimuth Distance (km) Brightness Sun altitude
Rises 19:50:50 0° 350° (N) 3,827 7.7 -11.5°
Reaches altitude 10° 19:53:19 10° 350° (N) 2,947 7.1 -11.9°
Maximum altitude 20:00:24 82° 264° (W) 1,181 4.5 -12.9°
Drops below altitude 10° 20:07:49 10° 178° (S) 3,079 6.3 -14.0°
Sets 20:10:27 0° 178° (S) 4,007 6.9 -14.4°
